Retour au catalogue

COSMOS 1249 COOLANT *

ActifLEO
NORAD 29444·DEBRIS·🇷🇺 Russia

Lancé Mar 5, 1981 depuis Baikonur Cosmodrome

Loading…

Prochains Passages (prochaines 24 heures)

TLE

FraisSource: Space-Track

Époque: Sep 13, 2026, 10:06 UTC

1 29444U 81021W   26256.42134156  .00000055  00000-0  11551-3 0  9998
2 29444  64.9628 186.6788 0063600 240.7792 118.6901 13.90135193616464

Suivez COSMOS 1249 COOLANT * en temps réel avec AllMySat

Download on the App Store